Location: Observatoire de Paris
(48.8363°N, 2.3365°E)
Time: 09:56:55
(UTC+01:00)

BUGSAT 1 - Pass Details

Date: 28 September 2021
Orbit: 557 x 602 km, 98.1° (Epoch: 26 October)

Event Time Altitude Azimuth Distance (km) Brightness Sun altitude
Rises 05:38:49 0° 16° (NNE) 2,798 ? -11.8°
Reaches altitude 10° 05:41:00 10° 19° (NNE) 1,888 ? -11.5°
Maximum altitude 05:45:04 68° 102° (ESE) 616 ? -10.8°
Drops below altitude 10° 05:49:03 10° 186° (S) 1,849 ? -10.2°
Sets 05:51:10 0° 189° (S) 2,736 ? -9.8°
